Location: Fontevrault
(47.1823°N, 0.0493°E)
Time: 14:27:12
(UTC+00:00)

Cosmos 1624 Rocket - Pass Details

Date: 16 June 2021
Orbit: 758 x 783 km, 74.0° (Epoch: 29 July)

Event Time Altitude Azimuth Distance (km) Brightness Sun altitude
Rises 20:29:43 0° 205° (SSW) 3,255 7.1 -5.0°
Reaches altitude 10° 20:32:06 10° 207° (SSW) 2,329 6.4 -5.3°
Maximum altitude 20:37:24 75° 293° (WNW) 809 4.3 -5.9°
Drops below altitude 10° 20:42:42 10° 19° (NNE) 2,331 6.9 -6.6°
Sets 20:45:06 0° 22° (NNE) 3,259 7.6 -6.8°
